Flag for Venezuela Weather past 2 weeks in Valencia, Venezuela

Now
82 °F

Clear.


Feels Like: 87 °F
Forecast: 66 / 96 °F
Wind: 10 mph from East

Location: Valencia Airport

Current Time: May 7, 2015 at 2:18:30 AM

Latest Report: May 6, 2015 at 10:30 PM


Visibility: 10 mi

Pressure: 29.98 "Hg

Humidity: 70%

Dew point: 72 °F

Location of ValenciaLocation

Historic Weather in Valencia — Graph

°F

Valencia temperature yesterday

Maximum temperature yesterday: 99 °F (at 3:30 PM)
Minimum temperature yesterday: 77 °F (at 6:30 AM)
Average temperature yesterday: 87 °F

Past Weeks' High & Low Weather Summary

 TemperatureHumidityPressure
High100 °F (May 5, 2:30 PM)94% (Apr 26, 5:30 AM)30.15 "Hg (Apr 26, 5:30 AM)
Low73 °F (Apr 26, 5:30 AM)30% (Apr 22, 2:30 PM)29.80 "Hg (Apr 27, 4:30 PM)
Average87 °F56%29.93 "Hg
* Reported Apr 22 6:30 AM — May 6 10:30 PM, Valencia, Weather by CustomWeather, © 2015

Note: Actual official high and low records may vary slightly from our data, if they occured in-between our weather recording intervals... More about our weather records

Advertising

Valencia weather history for previous 24 hours

 ConditionsComfort  
Time TempWeatherWind HumidityBarometerVisibility
10:30 PM
Wed, May 6
82 °FClear.10 mph70%29.98 "Hg10 mi
9:30 PM82 °FClear.3 mph66%29.95 "Hg10 mi
8:30 PM82 °FClear.6 mph66%29.92 "Hg10 mi
7:30 PM84 °FPassing clouds.8 mph62%29.89 "HgN/A
6:30 PM88 °FPassing clouds.6 mph55%29.86 "HgN/A
5:30 PM93 °FPartly sunny.6 mph41%29.86 "HgN/A
4:30 PM95 °FExtremely hot.6 mph44%29.86 "HgN/A
3:30 PM99 °FPartly sunny.6 mph39%29.89 "HgN/A
2:30 PM97 °FScattered clouds.6 mph42%29.92 "HgN/A
1:30 PM97 °FScattered clouds.7 mph42%29.95 "HgN/A
12:30 PM93 °FScattered clouds.8 mph49%29.98 "HgN/A
11:30 AM91 °FPassing clouds.7 mph52%29.98 "HgN/A
10:30 AM90 °FPassing clouds.8 mph55%30.01 "HgN/A
9:30 AM86 °FPassing clouds.10 mph59%30.01 "HgN/A
8:30 AM82 °FPassing clouds.9 mph66%30.01 "HgN/A
7:30 AM81 °FPassing clouds.10 mph70%30.01 "HgN/A
6:30 AM77 °FPassing clouds.6 mph74%29.95 "HgN/A
4:30 AM79 °FClear.7 mph65%29.95 "Hg10 mi
Weather by CustomWeather, © 2015

See weather overviewHow to use our weather pages